#timestamp,LO_Frequency,Hit,StdDev 
1634634015.2,286047000.0,N
1634634035.1,286047002.6,N
1634634036.0,286047002.6,N
1634634055.8,286046999.9,N
1634634075.6,286047000.0,N
1634634095.5,286047002.5,N
1634634115.3,286047001.6,N
1634634135.1,286047002.0,N
1634634155.9,286047001.3,N
1634634175.7,286047003.3,N
1634634195.5,286047001.3,N
1634634215.4,286047003.1,N
1634634235.2,286047003.6,N
1634634255.0,286047003.7,N
1634634255.9,286047003.7,N
1634634275.8,286047003.1,N
1634634295.6,286047003.2,N
1634634315.4,286047004.0,N
1634634335.3,286047001.9,N
1634634355.1,286047004.0,N
1634634375.8,286047003.1,N
1634634395.7,286047005.3,Y
1634634415.5,286047004.0,P
1634634435.4,286047002.6,N
1634634455.2,286047002.3,N
1634634475.0,286047002.8,Y
1634634475.9,286047002.8,P
1634634495.8,286047000.9,P
1634634515.6,286046999.9,N
1634634535.4,286047000.4,N
1634634555.3,286047000.7,N
1634634575.1,286047002.3,N
1634634576.0,286047002.3,N
1634634595.8,286047002.5,N
1634634615.7,286047002.0,N
1634634635.5,286047000.5,N
1634634655.3,286046999.8,N
1634634675.2,286047002.0,N
1634634695.9,286047002.3,N
1634634715.7,286047002.7,N
1634634735.6,286047002.6,N
1634634755.4,286047002.2,N
1634634775.2,286047002.5,N
1634634795.1,286047002.1,N
1634634796.0,286047002.1,N
1634634815.8,286047002.4,N
1634634835.6,286047001.3,N
1634634855.5,286047003.8,Y
1634634875.3,286047002.6,P
1634634895.1,286047000.0,N
1634634915.9,286047000.4,N
1634634935.7,286047000.4,N
1634634955.5,286047001.1,N
1634634975.4,286047000.9,N
1634634995.2,286046998.5,N
1634635015.0,286046999.4,N
1634635015.9,286046999.4,N
1634635035.8,286046999.6,N
1634635055.6,286046998.3,N
1634635075.4,286046999.4,N
1634635095.3,286046998.7,N
1634635115.1,286046999.5,N
1634635135.8,286046999.5,N
1634635155.7,286046999.1,N
1634635175.5,286046997.1,N
1634635195.3,286046999.6,N
1634635215.2,286046997.9,N
1634635235.0,286046997.7,N
1634635235.9,286046997.7,N
1634635255.7,286046996.6,N
1634635275.6,286046997.0,N
1634635295.4,286046995.3,Y
1634635315.2,286046995.0,P
1634635335.1,286046995.7,N
1634635336.0,286046995.7,N
1634635355.8,286046998.0,N
1634635375.6,286046996.1,N
1634635395.5,286046995.8,N
1634635415.3,286046995.0,Y
1634635435.1,286046999.1,P
1634635455.9,286046996.8,N
1634635475.7,286046994.9,P
1634635495.5,286046997.8,N
1634635515.4,286046996.7,N
1634635535.2,286046997.4,N
1634635555.0,286046997.8,N
1634635555.9,286046997.8,N
1634635575.8,286046997.3,N
1634635595.6,286046995.0,Y
1634635615.4,286046998.8,P
1634635635.3,286046999.6,N
1634635655.1,286046997.9,N
1634635675.9,286046995.5,Y
1634635695.7,286046997.8,P
1634635715.5,286046997.1,P
1634635735.4,286046998.0,P
1634635755.2,286046995.0,Y
1634635775.0,286046998.8,P
1634635775.9,286046998.8,N
1634635795.8,286046998.2,P
1634635815.6,286046999.0,N
1634635835.4,286046996.8,Y
1634635855.3,286047000.9,P
1634635875.1,286046996.9,N
1634635876.0,286046996.9,N
1634635895.8,286046999.6,N
1634635915.7,286046995.0,Y
1634635935.5,286046999.0,P
1634635955.3,286046998.9,P
1634635975.2,286046997.4,P
1634635995.9,286046998.4,N
1634636015.7,286046999.1,N
1634636035.6,286046998.7,N
1634636055.4,286046997.0,Y
1634636075.2,286046998.6,P
1634636095.1,286047000.8,P
1634636096.0,286047000.8,N
1634636115.8,286046998.6,N
1634636135.6,286046998.4,N
1634636155.5,286046999.0,N
1634636175.3,286046997.8,N
1634636195.1,286046999.2,N
1634636215.9,286046998.4,N
1634636235.7,286046996.8,Y
1634636255.5,286046998.9,P
1634636275.4,286046999.0,P
1634636295.2,286046999.4,P
1634636315.0,286046997.7,Y
1634636315.9,286046997.7,P
1634636335.8,286046996.6,P
1634636355.6,286046997.8,N
1634636375.4,286046997.9,N
1634636395.3,286046995.7,Y
1634636415.1,286046997.0,P
1634636435.8,286046999.2,N
1634636455.7,286046997.0,P
1634636475.5,286046997.7,N
1634636495.3,286046995.3,Y
1634636515.2,286046999.2,P
1634636535.0,286046994.9,P
1634636535.9,286046994.9,N
1634636555.7,286046996.0,N
1634636575.6,286046995.4,N
1634636595.4,286046995.3,N
1634636615.2,286046994.3,Y
1634636635.1,286046995.0,P
1634636636.0,286046995.0,P
1634636655.8,286046995.3,P
1634636675.6,286046994.9,Y
1634636695.5,286046998.3,P
1634636715.3,286046998.6,N
1634636735.1,286046998.6,N
1634636755.9,286046998.9,N
1634636775.7,286046997.0,N
1634636795.5,286046997.7,N
1634636815.4,286046997.1,N
1634636835.2,286046993.3,Y
1634636855.0,286046999.6,P
1634636856.0,286046999.6,N
1634636875.8,286046996.4,P
1634636895.6,286046996.3,N
1634636915.5,286046997.6,N
1634636935.3,286046995.7,Y
1634636955.1,286046995.6,P
1634636975.9,286046996.0,P
1634636995.7,286046995.1,P
1634637015.5,286046997.6,N
1634637035.4,286046995.8,Y
1634637055.2,286046999.6,P
1634637075.0,286046999.6,N
1634637075.9,286046999.6,N
1634637095.8,286046997.0,N
1634637115.6,286046999.6,N
1634637135.4,286046994.9,Y
1634637155.3,286046997.7,P
1634637175.1,286046993.8,P
1634637176.0,286046993.8,N
1634637195.8,286046993.9,N
1634637215.7,286046992.4,Y
1634637235.5,286046997.5,P
1634637255.3,286046994.9,P
1634637275.2,286046993.6,P
1634637295.9,286046995.5,Y
1634637315.7,286047000.0,P
1634637335.6,286047000.4,N
1634637355.4,286046998.5,N
1634637375.2,286046998.3,N
1634637395.1,286046997.2,N
1634637396.0,286046997.2,N
1634637415.8,286046998.9,N
1634637435.6,286046998.6,N
1634637455.5,286046999.5,N
1634637475.3,286046997.2,N
1634637495.1,286046995.5,Y
1634637515.9,286046995.5,P
1634637535.7,286046995.3,P
1634637555.5,286046998.0,N
1634637575.4,286046993.4,Y
1634637595.2,286046996.8,P
